INTELSAT 19 (IS-19)

Last updated on Thu Nov 21 2024 00:02:42 GMT+0000 (Coordinated Universal Time)

1 38356U 12030A 24325.38890823 -.00000055 00000+0 00000+0 0 9997 2 38356 0.0095 324.8111 0003513 282.9317 118.1795 1.00272580 44684
UTC large
Height (km)
Speed (km/s)
/
Latitude / Longitude
Inclination (degrees)
Orbital Period (minutes)
Azimuth
Elevation
Range (km)
Doppler Factor

Next 0 passes for location: London (51.5072 / 0.1276)

Sorry there are no passes over London.